Temp
50 49 49 50 51 51 51 50 46 40 44 51 53 59 59 59 59 59 59 58 59 59 60 60 60 61 62 62 63 63 62 62 64 65 66 66 67 68
50 47 48 49 49 50 50 50 49 43 38 50 52 55 54 55 56 57 57 54 56 58 59 59 59 59 60 60 61 61 61 61 61 63 65 66 67 67
47 46 46 48 47 47 48 48 46 45 40 46 51 53 51 50 53 54 54 56 58 56 57 57 57 58 58 59 59 60 60 61 61 61 62 63 65 66
45 45 44 46 44 45 46 44 44 44 42 39 44 47 47 49 50 48 51 55 55 54 55 56 55 56 56 57 57 58 58 58 59 60 60 61 62 64
45 43 43 43 42 43 43 42 43 44 42 40 40 46 46 47 46 47 48 49 52 51 53 53 54 53 54 55 55 57 56 56 57 57 58 59 60 61
44 43 42 42 41 42 42 42 43 41 41 40 40 41 43 45 43 40 41 46 46 51 51 52 52 52 53 53 55 54 54 54 55 56 57 56 56 57
42 42 42 42 42 43 42 41 41 39 38 38 37 38 39 39 38 41 38 41 44 45 46 48 50 51 49 51 52 52 52 53 54 55 55 56 56 56
39 41 42 41 42 42 42 43 42 37 36 34 35 35 37 38 39 39 38 36 34 47 43 41 46 46 50 51 52 52 52 53 53 53 54 54 54 55
39 40 40 42 41 40 41 42 40 41 41 38 35 34 34 37 36 35 34 34 36 43 40 35 42 41 45 48 50 51 51 51 52 52 52 53 53 54
39 40 39 38 40 40 40 35 39 39 40 40 38 38 39 39 39 39 38 37 38 39 41 33 39 38 43 46 50 50 50 50 50 50 50 51 52 52
40 40 38 39 40 41 35 36 36 37 40 40 40 41 41 41 41 38 34 33 32 34 39 34 36 36 39 42 44 45 45 46 47 48 49 50 51 51
37 38 39 39 40 38 37 35 31 33 35 36 36 36 38 38 39 38 35 31 31 30 37 33 36 34 33 39 37 38 37 43 46 47 50 49 47 45
34 36 38 39 37 39 39 35 33 36 35 33 32 33 34 35 36 36 35 32 30 30 36 34 32 32 32 33 36 37 33 42 45 46 47 46 46 44
35 37 37 36 38 37 36 36 36 35 31 29 29 29 31 31 32 33 33 33 34 32 34 31 29 30 30 30 31 33 31 34 41 40 40 43 43 43
37 36 37 37 37 35 34 35 34 30 28 26 27 28 30 30 30 31 33 33 33 32 32 29 28 28 29 30 31 31 30 29 35 37 37 36 36 37
34 35 35 35 35 33 32 32 30 30 28 27 26 29 30 29 29 31 31 32 31 31 31 30 29 28 30 32 32 31 29 29 32 32 32 35 37 38
35 33 31 30 28 29 29 29 29 29 27 27 26 27 27 28 28 31 31 31 29 28 28 29 29 30 30 30 29 29 30 29 30 31 31 28 30 36
32 28 26 27 26 26 26 26 27 27 27 26 26 26 26 26 27 30 30 29 27 26 25 25 26 28 28 28 30 27 27 27 28 30 31 28 27 29
28 25 25 25 25 25 25 25 24 26 25 25 25 25 25 26 28 28 29 27 25 24 23 23 22 22 23 21 25 30 26 26 27 26 29 29 28 28
26 25 24 25 25 24 24 24 24 24 24 25 25 24 25 27 27 28 27 26 25 24 23 22 21 19 22 22 23 25 31 28 28 27 27 29 33 34
25 25 25 25 24 24 24 24 23 23 24 24 24 24 27 26 27 27 27 28 27 25 22 21 19 23 19 22 25 24 27 32 32 30 29 29 28 29
25 25 25 25 24 24 23 23 23 23 23 23 24 25 27 27 26 26 26 25 24 23 22 21 22 22 23 25 22 22 24 27 32 33 33 32 30 26
24 25 24 24 24 23 23 23 23 23 23 24 24 27 27 26 26 26 25 25 25 24 23 24 24 24 21 23 24 24 23 25 28 28 30 31 33 34
MSLP
1011.10 1010.74 1010.18 1009.44 1008.75 1008.03 1007.25 1006.42 1005.51 1003.92 1002.24 1000.50 1000.81 1000.53 1000.12 999.97 999.51 999.15 998.30 997.21 996.23 995.65 995.15 994.60 994.16 993.46 993.06 992.96 992.60 992.27 992.16 991.69 992.06 991.97 991.91 992.26 992.77 993.17
1010.89 1010.46 1009.87 1009.16 1008.43 1007.67 1007.01 1006.36 1005.63 1005.18 1003.79 1001.69 1000.31 1000.05 1000.07 999.75 999.31 998.50 997.68 997.15 995.84 994.95 994.29 993.61 993.13 992.72 992.15 991.78 991.38 991.19 990.96 991.02 990.62 990.64 990.88 991.04 991.32 991.75
1010.74 1010.10 1009.55 1008.86 1008.30 1007.53 1006.74 1006.12 1005.50 1005.01 1003.73 1001.14 1000.78 999.86 999.55 999.07 998.34 998.00 997.34 996.23 995.00 994.09 993.66 992.96 992.38 991.85 991.32 990.82 990.28 989.90 989.66 989.66 989.75 989.56 989.76 989.86 990.31 990.50
1010.41 1009.78 1009.24 1008.63 1007.91 1007.19 1006.44 1005.65 1005.17 1004.58 1003.49 1001.55 1000.52 999.68 999.36 998.75 997.91 997.25 996.63 995.47 994.63 993.72 993.03 992.31 991.71 991.14 990.31 989.88 989.31 988.80 988.60 988.46 988.61 988.87 989.10 988.61 988.97 989.36
1010.07 1009.45 1008.77 1008.24 1007.44 1006.87 1006.24 1005.32 1004.54 1003.85 1003.06 1001.84 1000.30 999.66 998.73 998.10 997.21 996.65 995.80 994.94 994.15 993.23 992.29 991.63 990.74 990.29 989.52 989.03 988.49 987.97 987.71 987.51 987.52 987.81 987.90 987.91 987.86 988.05
1009.73 1009.21 1008.55 1007.96 1007.24 1006.44 1005.53 1004.67 1003.96 1003.17 1002.17 1001.11 1000.01 998.97 998.08 997.29 996.82 995.87 994.52 994.18 992.96 992.29 991.50 990.92 990.17 989.40 988.52 987.98 987.19 986.84 987.02 986.62 986.86 986.77 986.68 986.61 986.87 987.00
1009.25 1008.72 1008.13 1007.58 1006.94 1006.09 1005.08 1004.22 1003.47 1002.50 1001.56 1000.52 999.38 998.43 997.42 996.61 995.84 995.06 994.24 993.16 992.02 991.60 990.59 989.90 988.96 988.21 987.69 987.30 986.84 986.40 985.89 986.13 986.01 985.85 985.73 985.66 985.89 985.84
1008.76 1008.11 1007.48 1006.87 1006.11 1005.35 1004.71 1003.77 1002.92 1002.14 1001.24 1000.37 999.19 998.07 997.00 996.26 995.13 994.28 993.38 992.48 991.31 990.68 989.49 988.93 989.06 988.02 986.93 986.21 985.61 985.41 985.15 984.98 985.01 985.14 984.76 984.70 984.67 984.62
1008.43 1007.59 1006.70 1006.18 1005.61 1004.79 1003.80 1002.87 1002.32 1001.51 1000.73 999.83 998.69 997.76 996.62 995.64 994.90 993.60 992.53 991.72 990.98 989.87 989.33 988.48 988.19 987.03 986.28 985.42 984.67 984.22 984.28 984.15 983.84 983.74 983.57 983.78 983.85 983.67
1007.97 1007.17 1006.29 1005.59 1004.88 1003.87 1002.71 1002.01 1001.15 1000.32 999.50 998.78 998.09 997.08 996.00 994.84 993.85 992.88 991.92 991.07 990.14 988.95 988.84 987.77 987.02 986.20 985.35 984.32 983.73 983.49 983.27 983.05 982.90 982.78 982.60 982.51 982.42 982.23
1007.28 1006.62 1006.04 1004.86 1004.05 1003.19 1002.36 1001.28 1000.28 999.11 998.60 997.95 996.90 995.77 994.93 993.82 992.98 992.13 991.12 990.51 989.08 987.84 987.99 987.55 986.28 985.54 984.55 983.70 983.37 983.04 982.63 982.02 981.55 981.50 981.55 981.41 981.42 981.33
1006.73 1005.94 1005.20 1004.32 1003.31 1002.76 1001.82 1000.98 999.63 998.54 997.57 996.26 995.52 994.88 994.16 993.18 992.22 991.48 990.69 989.84 988.88 987.15 987.26 987.00 986.10 986.25 984.58 983.41 983.43 983.12 982.51 981.13 980.15 980.13 979.96 980.17 980.94 981.80
1006.10 1005.00 1004.29 1003.47 1002.68 1001.91 1001.34 1000.60 999.49 997.99 997.04 996.34 995.30 994.23 993.22 992.23 991.25 990.65 990.06 989.58 988.22 987.17 986.85 986.63 985.97 985.97 985.55 984.14 983.49 983.05 982.35 980.49 979.75 980.10 980.63 981.10 981.72 982.13
1005.59 1004.61 1003.70 1002.81 1001.95 1001.31 1000.77 1000.02 998.76 997.78 997.20 996.22 995.00 993.73 992.56 991.63 990.84 990.12 989.39 988.55 987.62 986.96 986.30 986.40 985.96 985.62 984.98 984.18 983.49 983.13 982.49 981.45 980.85 981.35 982.08 982.73 983.24 983.86
1005.27 1004.30 1003.35 1002.25 1001.28 1000.88 1000.39 999.42 998.57 997.83 996.92 995.74 994.43 993.24 992.22 991.29 990.30 989.17 988.08 987.14 986.46 985.92 985.72 985.95 985.71 985.08 984.59 983.66 983.30 983.32 983.14 982.72 982.13 982.45 983.27 984.08 984.75 985.39
1004.82 1003.73 1002.91 1001.98 1001.29 1000.83 999.87 999.03 998.30 997.48 996.47 995.28 994.05 992.74 991.65 990.50 989.35 988.29 987.09 986.31 985.61 985.06 985.32 985.46 985.17 984.46 983.54 983.20 983.15 983.15 983.42 983.33 983.41 983.85 984.38 984.99 985.80 986.60
1004.05 1003.38 1002.63 1001.83 1001.18 1000.23 999.41 998.59 997.68 996.73 995.71 994.76 993.49 992.16 990.89 989.79 988.58 987.50 986.48 985.72 985.22 984.89 984.99 985.06 984.86 984.36 983.64 983.20 983.26 983.45 983.65 983.93 984.22 984.67 985.25 986.38 987.40 987.78
1004.04 1003.53 1002.77 1001.88 1001.08 1000.14 999.11 998.00 997.13 996.14 995.24 994.21 992.92 991.71 990.42 989.20 987.93 986.70 986.02 985.45 985.18 985.25 985.23 985.19 984.98 984.44 984.14 984.05 984.07 984.18 984.41 984.67 985.18 985.56 986.14 987.10 988.43 988.99
1004.34 1003.70 1002.79 1001.91 1000.98 1000.03 999.10 998.01 996.76 995.77 994.88 993.65 992.47 991.13 989.92 988.69 987.38 986.50 985.86 985.66 985.66 985.76 985.84 985.72 985.51 985.20 984.74 984.82 985.24 985.25 985.14 985.62 985.90 986.53 987.23 987.93 988.75 989.74
1004.41 1003.56 1002.68 1001.79 1000.79 999.86 998.80 997.67 996.48 995.36 994.32 993.16 992.02 990.89 989.61 988.34 987.35 986.61 986.33 986.18 986.13 986.16 986.20 986.25 986.09 985.97 985.74 985.89 985.92 986.66 986.43 986.38 986.65 987.41 988.29 988.96 989.56 990.38
1003.99 1003.28 1002.47 1001.52 1000.55 999.59 998.47 997.37 996.32 995.09 993.91 992.90 991.76 990.65 989.47 988.70 987.93 987.42 987.01 986.71 986.67 986.71 986.78 986.86 987.08 986.83 986.77 986.52 986.44 987.21 987.44 987.39 987.48 987.80 988.65 989.20 989.91 990.63
1003.84 1003.02 1002.10 1001.20 1000.23 999.24 998.03 997.02 995.83 994.76 993.74 992.71 991.63 990.62 989.77 989.16 988.60 988.15 987.80 987.50 987.38 987.36 987.34 987.30 987.15 986.89 986.64 986.69 987.23 987.69 988.21 988.48 988.53 988.76 989.14 989.36 989.73 990.12
1003.65 1002.77 1001.75 1000.80 999.86 998.79 997.75 996.66 995.64 994.52 993.50 992.55 991.64 990.65 990.10 989.49 989.09 988.68 988.31 987.99 987.67 987.46 987.39 987.17 987.12 987.10 987.33 987.47 987.59 988.02 988.50 988.86 989.12 989.41 989.78 989.98 989.77 989.82
Wind_Speed
11 11 10 10 10 10 10 11 10 12 15 18 14 13 11 12 13 17 18 23 26 28 27 27 27 27 28 29 31 31 29 29 28 29 28 27 30 32
10 14 11 11 11 9 9 10 10 9 12 14 15 15 13 13 15 17 18 24 27 27 27 26 27 27 27 28 29 30 29 28 28 28 28 29 30 32
13 14 14 13 11 11 10 10 10 10 13 18 14 14 19 18 16 15 15 17 15 21 25 27 28 26 27 28 27 29 28 28 28 28 28 28 30 32
16 13 15 12 15 14 10 14 12 14 13 21 14 15 17 17 17 18 15 14 15 20 27 24 26 29 26 25 23 24 26 26 26 26 27 27 28 28
15 15 17 17 16 13 14 13 11 12 12 13 16 14 14 13 15 16 16 16 14 22 25 27 25 27 29 29 27 25 24 21 22 23 24 26 28 31
15 16 17 17 18 18 15 15 14 14 14 13 14 14 13 15 13 14 15 13 15 13 18 21 26 27 29 28 25 22 19 17 19 21 22 24 25 24
17 17 16 19 25 21 14 16 17 15 15 14 15 14 14 14 16 14 16 15 14 11 11 14 13 12 10 18 19 17 15 18 20 21 22 22 24 26
16 17 17 21 19 26 28 29 25 19 19 14 16 16 20 17 16 15 15 15 13 11 11 11 13 15 13 13 22 23 22 20 20 23 22 23 25 26
17 16 16 13 20 17 23 26 23 27 27 20 20 17 18 19 17 18 17 10 15 14 13 14 14 14 13 14 26 27 23 23 22 24 24 25 25 24
17 18 17 17 17 21 19 14 17 20 19 15 18 19 18 21 19 18 17 19 15 13 12 14 9 13 12 11 22 21 21 23 25 26 25 26 24 26
15 16 16 18 24 31 18 19 21 20 19 29 30 31 30 34 27 13 11 12 14 14 8 9 11 11 10 10 8 19 24 27 28 27 26 24 25 12
15 15 22 24 32 24 19 19 20 19 20 20 17 19 20 20 27 16 12 12 13 15 4 6 10 7 6 3 3 5 7 22 27 26 16 23 24 11
12 13 12 29 23 28 31 17 19 24 21 16 15 14 14 14 12 12 10 12 13 14 12 9 4 6 6 8 2 5 6 6 6 11 23 25 24 21
14 13 16 25 32 30 25 30 31 27 13 13 13 14 13 13 13 13 16 15 10 15 12 5 5 8 9 9 5 2 4 6 7 8 10 18 22 23
13 21 31 34 31 20 27 31 27 12 12 13 13 14 12 14 17 15 16 13 13 11 6 3 7 10 9 9 3 3 0 5 5 9 9 9 9 10
16 15 24 26 21 22 19 16 12 12 13 13 13 13 13 13 13 12 12 10 9 7 4 3 6 7 6 6 5 4 3 2 4 7 8 8 9 7
23 13 12 12 12 13 13 13 12 12 13 12 13 14 14 13 13 13 9 9 8 5 1 2 5 6 5 2 3 4 5 5 5 8 11 9 7 6
14 12 12 11 13 14 14 14 13 17 13 14 13 13 13 13 13 10 8 6 3 2 3 3 4 2 2 9 14 6 6 7 5 9 9 9 5 5
11 11 12 13 13 14 14 14 15 14 16 12 13 13 13 12 14 9 6 2 2 3 4 4 5 2 2 4 3 18 5 5 6 8 7 6 5 4
10 11 12 13 13 14 14 14 14 14 13 13 13 12 12 10 9 6 4 4 3 3 4 5 6 6 3 3 4 6 9 6 7 8 7 8 10 13
11 12 12 13 13 13 14 14 14 13 15 13 12 11 9 8 7 6 7 9 6 4 4 4 4 6 1 1 6 6 7 13 7 7 7 7 5 4
12 13 13 13 13 13 14 13 13 13 13 11 11 10 8 7 7 7 7 6 5 4 2 2 4 2 2 4 7 6 5 6 11 13 11 5 3 6
12 12 13 13 13 13 13 13 13 13 12 11 10 8 7 7 7 6 5 5 4 3 3 3 3 4 5 5 6 5 9 8 6 6 4 6 8 8
Wind_Direction
323 326 313 311 306 302 294 299 305 308 308 305 302 301 306 308 309 309 299 296 297 295 294 294 289 281 272 266 265 265 258 268 264 252 244 235 231 230
322 320 315 314 315 307 317 305 307 307 296 299 301 304 311 304 302 298 304 299 291 291 291 292 294 290 283 277 267 263 263 260 256 258 255 245 236 230
319 315 316 319 314 304 305 301 299 300 285 288 286 302 307 303 295 297 296 292 285 290 293 296 292 293 293 286 276 268 262 260 260 258 255 254 247 236
321 311 316 313 309 308 304 300 300 295 291 285 294 301 298 296 294 297 292 285 294 285 286 291 300 291 289 290 286 274 267 258 256 253 254 250 246 249
317 316 315 317 312 313 307 301 301 302 299 297 297 296 295 296 299 298 293 290 281 285 289 288 289 300 296 289 286 282 271 260 259 254 251 249 249 245
317 317 314 312 312 311 308 309 309 302 298 294 294 295 295 298 292 295 289 285 284 280 282 289 289 285 287 287 283 276 267 261 262 264 257 246 243 237
319 315 310 309 311 310 312 313 307 304 303 298 295 295 295 299 293 294 288 285 283 285 290 286 280 280 276 295 283 276 263 259 262 268 266 257 245 240
313 310 309 310 309 313 311 307 310 315 310 307 303 299 297 294 290 289 288 286 286 283 288 289 297 285 278 278 277 277 278 271 269 270 269 259 259 251
309 307 304 305 312 305 298 309 310 306 304 300 297 293 303 296 293 293 281 283 293 290 291 287 278 273 269 265 266 269 267 273 276 274 267 257 251 244
309 305 304 307 306 305 308 307 310 309 303 300 298 293 289 290 289 291 295 296 287 281 286 281 288 287 280 264 257 265 269 270 267 266 266 263 259 255
309 308 306 306 308 311 318 320 313 305 303 301 299 303 304 300 297 299 285 294 290 288 290 278 278 277 275 272 270 274 282 280 271 260 257 254 254 183
311 308 307 313 314 319 320 319 310 308 306 310 312 305 298 297 295 292 285 286 287 288 299 295 303 311 278 220 285 281 287 278 260 256 228 136 121 111
311 313 311 310 312 325 323 319 303 312 318 316 303 302 300 298 295 299 280 277 273 283 286 285 280 291 273 286 278 298 314 307 94 118 120 121 124 125
313 311 308 321 321 325 325 316 319 321 314 303 301 298 302 304 303 296 289 278 265 275 281 255 266 264 266 274 262 313 328 343 97 102 103 103 104 107
312 311 320 317 317 321 316 320 319 313 306 299 301 299 302 300 296 289 290 273 280 268 260 247 265 270 255 252 219 216 185 352 68 104 106 109 113 117
312 317 316 315 315 315 315 312 310 306 306 303 300 299 299 298 298 297 289 299 290 287 198 286 303 278 259 247 215 171 163 129 80 90 93 100 102 103
332 320 316 317 322 315 313 312 311 309 307 307 303 304 303 302 298 299 292 290 284 291 292 329 331 351 36 39 113 115 124 99 98 105 99 91 61 108
325 320 318 320 315 316 315 314 313 312 311 308 303 305 304 304 302 301 302 298 320 26 355 346 338 320 4 54 51 78 78 91 78 91 98 100 83 60
322 317 313 314 314 313 312 311 310 311 310 305 307 308 307 304 309 309 316 15 36 34 24 7 1 347 31 70 28 31 71 76 92 70 77 85 103 107
316 312 312 312 311 312 311 309 309 310 311 311 313 310 309 311 320 337 11 23 23 25 25 23 25 19 26 48 80 42 59 100 97 98 97 83 91 114
317 314 311 311 310 310 307 307 308 310 315 314 313 315 321 335 350 3 9 22 32 16 18 17 357 351 308 277 97 81 53 62 75 107 114 103 108 120
315 313 312 309 309 308 306 308 309 313 314 315 315 317 336 341 354 0 7 6 15 15 9 329 348 357 52 83 100 105 98 63 80 89 76 85 151 162
313 311 311 310 308 307 307 310 312 311 312 314 316 321 336 341 348 352 355 356 353 0 2 22 28 46 57 71 102 104 114 112 113 107 75 27 6 118